Regional Weather Roundup
Issued by NWS

Home | Current Version | Previous Version | Text Only | Print | Product List | Glossary On
Versions: 1 2 3 4 5 6 7 8 9 10 11 12 13 14 15 16 17 18 19 20 21 22 23 24 25 26 27 28 29 30 31 32 33 34 35 36 37 38 39 40 41 42 43 44 45 46 47 48 49 50
000
ASUS43 KLSX 032357
RWRMO

WEATHER SUMMARY FOR MISSOURI
NATIONAL WEATHER SERVICE SPRINGFIELD MO
600 PM CST SAT DEC 03 2016

NOTE: "FAIR" INDICATES FEW OR NO CLOUDS BELOW 12,000 FEET WITH NO
       SIGNIFICANT WEATHER AND/OR OBSTRUCTIONS TO VISIBILITY.
       CURRENT SKY AND/OR WEATHER CONDITIONS ARE NOT AVAILABLE FOR
       CHILLICOTHE AND FARMINGTON.

MOZ001>031-035>038-043-044-053-054-040100-
...NORTHERN AND WESTERN MISSOURI...

CITY           SKY/WX    TMP DP  RH WIND       PRES   REMARKS
KANSAS CTY INT CLOUDY    45  29  53 E8        30.13F
6HR MIN TEMP:  43; 6HR MAX TEMP:  45;

LEE`S SUMMIT   CLOUDY    47  31  53 SE8       30.15S
6HR MIN TEMP:  46; 6HR MAX TEMP:  49;

ST JOSEPH      CLOUDY    43  30  60 E5        30.15F
6HR MIN TEMP:  40; 6HR MAX TEMP:  44;

CHILLICOTHE      N/A     44  32  62 E5        30.19S
6HR MIN TEMP:  42; 6HR MAX TEMP:  45;


$$
MOZ066>068-077>081-088>096-101>105-040100-
...SOUTHWEST MISSOURI...

CITY           SKY/WX    TMP DP  RH WIND       PRES   REMARKS
SPRINGFIELD    CLOUDY    41  35  79 SE13      30.16F
6HR MIN TEMP:  41; 6HR MAX TEMP:  48; 6HR PCP: TRACE;

JOPLIN         LGT RAIN  43  40  89 SE7       30.14F
6HR MIN TEMP:  43; 6HR MAX TEMP:  53; 6HR PCP:  0.01;

BRANSON        LGT RAIN  37  37 100 E14G23    30.17F FOG     WCI  29

$$
MOZ032>034-039>042-045>050-055>058-069>072-040100-
...CENTRAL MISSOURI...

CITY           SKY/WX    TMP DP  RH WIND       PRES   REMARKS
COLUMBIA       NOT AVBL
JEFFERSON CITY CLOUDY    43  32  65 SE6       30.23R
6HR MIN TEMP:  41; 6HR MAX TEMP:  46;

ROLLA          CLOUDY    41  31  67 SE8       30.21S
6HR MIN TEMP:  41; 6HR MAX TEMP:  45;

SEDALIA        CLOUDY    45  32  60 E7        30.19S
6HR MIN TEMP:  45; 6HR MAX TEMP:  50;

WARRENSBURG    CLOUDY    46  32  57 E9        30.17R

$$
MOZ051-052-059>065-040100-
...EAST CENTRAL MISSOURI...

CITY           SKY/WX    TMP DP  RH WIND       PRES   REMARKS
ST LOUIS INTL  CLOUDY    42  31  64 E7        30.27S
6HR MIN TEMP:  41; 6HR MAX TEMP:  45;


$$
MOZ072>076-082>087-097>100-106>115-040100-
...SOUTH CENTRAL AND SOUTHEAST MISSOURI...

CITY           SKY/WX    TMP DP  RH WIND       PRES   REMARKS
CAPE GIRARDEAU CLOUDY    42  31  64 E5        30.28S
6HR MIN TEMP:  42; 6HR MAX TEMP:  44;

POPLAR BLUFF   LGT RAIN  41  37  86 CALM      30.27S
6HR MIN TEMP:  41; 6HR MAX TEMP:  44; 6HR PCP:  0.01;

WEST PLAINS    LGT RAIN  38  36  92 SE6       30.22F
6HR MIN TEMP:  38; 6HR MAX TEMP:  44; 6HR PCP:  0.05;


$$


USA.gov is the U.S. government's official web portal to all federal, state and local government web resources and services.